Data for 05/19/2009

Time Sea-Level Adjusted Pressure Absolute Pressure Temperature Relative Humidity Dew Point   
(mb) (inHg) (mb) (inHg) (C) (F) (%) (C) (F)
00:05 1013 29.91 843 24.89 16.6 61.9 54 7.3 45.1
00:10 1013 29.91 843 24.89 16.6 61.9 53 7 44.6
00:15 1013 29.91 843 24.89 16.5 61.7 53 7.1 44.8
00:20 1013 29.91 843 24.89 16.5 61.6 52 6.6 43.9
00:25 1013 29.91 842 24.86 16.6 61.8 53 7 44.6
00:30 1013 29.91 842 24.86 16.4 61.5 53 7 44.6
00:35 1013 29.91 842 24.86 16.1 61.1 54 7 44.6
00:40 1013 29.91 842 24.86 16 60.7 54 6.9 44.4
00:45 1013 29.91 842 24.86 15.7 60.3 55 6.7 44.1
00:50 1013 29.91 842 24.86 15.7 60.2 55 6.7 44
00:55 1013 29.91 842 24.86 15.7 60.3 54 6.5 43.6
01:00 1013 29.91 842 24.86 15.8 60.5 53 6.4 43.5
01:05 1013 29.91 842 24.86 15.7 60.3 55 6.7 44
01:10 1013 29.91 842 24.86 15.5 59.9 55 6.5 43.7
01:15 1013 29.91 842 24.86 15.4 59.7 55 6.4 43.5
01:20 1013 29.91 842 24.86 15.3 59.5 56 6.6 43.9
01:25 1013 29.91 842 24.86 15.3 59.5 54 6.1 43.1
01:30 1013 29.91 842 24.86 15.6 60 53 6.2 43.1
01:35 1013 29.91 842 24.86 15.5 59.8 54 6.2 43.1
01:40 1012 29.88 842 24.86 15.4 59.7 54 6.1 43
01:45 1012 29.88 842 24.86 15.3 59.5 54 6.1 43
01:50 1012 29.88 842 24.86 15.3 59.5 54 6.2 43.2
01:55 1012 29.88 842 24.86 15.3 59.5 52 5.7 42.2
02:00 1012 29.88 842 24.86 15.4 59.7 53 5.9 42.6
02:05 1012 29.88 841 24.83 15.4 59.7 53 5.9 42.7
02:10 1012 29.88 841 24.83 15.3 59.5 53 5.8 42.4
02:15 1012 29.88 841 24.83 15.3 59.5 51 5.3 41.5
02:20 1012 29.88 841 24.83 15.4 59.7 52 5.6 42.1
02:25 1012 29.88 841 24.83 15.3 59.6 52 5.5 41.9
02:30 1012 29.88 841 24.83 15.3 59.5 54 6.1 42.9
02:35 1012 29.88 841 24.83 15.4 59.7 50 5.1 41.2
02:40 1012 29.88 841 24.83 15.5 59.9 50 5.2 41.3
02:45 1012 29.88 841 24.83 15.4 59.8 50 5.1 41.1
02:50 1012 29.88 841 24.83 15.6 60.1 49 4.9 40.9
02:55 1012 29.88 841 24.83 16 60.7 45 4.2 39.5
03:00 1012 29.88 841 24.83 16.1 60.9 47 4.7 40.5
03:05 1012 29.88 841 24.83 16.1 61 45 4.1 39.4
03:10 1012 29.88 841 24.83 16.1 60.9 45 4.3 39.8
03:15 1012 29.88 841 24.83 16 60.8 45 4.3 39.7
03:20 1012 29.88 841 24.83 16.1 61 45 4.2 39.6
03:25 1012 29.88 841 24.83 16 60.8 45 4.2 39.5
03:30 1012 29.88 841 24.83 16.1 60.9 47 4.7 40.5
03:35 1012 29.88 841 24.83 15.9 60.5 46 4.5 40.1
03:40 1012 29.88 841 24.83 15.9 60.7 44 3.8 38.9
03:45 1012 29.88 841 24.83 15.8 60.4 45 4.1 39.4
03:50 1011 29.85 841 24.83 15.9 60.7 47 4.8 40.6
03:55 1011 29.85 841 24.83 15.5 59.8 46 3.8 38.9
04:00 1011 29.85 841 24.83 16.1 60.9 37 1.5 34.7
04:05 1011 29.85 841 24.83 16.9 62.4 41 3.5 38.3
04:10 1011 29.85 841 24.83 16.5 61.6 39 2.7 36.9
04:15 1011 29.85 841 24.83 16.6 61.8 41 3.5 38.4
04:20 1011 29.85 841 24.83 16.1 61 43 3.8 38.9
04:25 1011 29.85 841 24.83 16.3 61.3 35 1 33.7
04:30 1011 29.85 841 24.83 17.5 63.5 32 0.9 33.7
04:35 1012 29.88 841 24.83 18.1 64.6 36 2.8 37
04:40 1012 29.88 841 24.83 17.3 63.2 40 3.6 38.5
04:45 1012 29.88 841 24.83 16.9 62.5 37 2.1 35.9
04:50 1012 29.88 841 24.83 16.6 62 39 2.6 36.8
04:55 1012 29.88 841 24.83 16.7 62.1 36 1.9 35.4
05:00 1012 29.88 841 24.83 17.2 63 34 1.4 34.5
05:05 1012 29.88 841 24.83 17.4 63.3 34 1.4 34.6
05:10 1012 29.88 841 24.83 17.6 63.7 32 1 33.8
05:15 1011 29.85 841 24.83 17.9 64.1 33 1.3 34.4
05:20 1011 29.85 841 24.83 17.5 63.4 33 1.1 33.9
05:25 1011 29.85 841 24.83 17.4 63.3 33 1.2 34.1
05:30 1011 29.85 841 24.83 17.7 63.9 32 1.1 33.9
05:35 1011 29.85 840 24.81 17.5 63.6 31 0.6 33
05:40 1011 29.85 840 24.81 17.7 63.8 33 1.5 34.6
05:45 1011 29.85 840 24.81 17.2 63 37 2.6 36.7
05:50 1011 29.85 840 24.81 16.5 61.7 40 2.8 37.1
05:55 1011 29.85 840 24.81 16 60.9 37 1.5 34.7
06:00 1011 29.85 840 24.81 16.8 62.2 36 1.8 35.2
06:05 1011 29.85 840 24.81 17.4 63.4 31 0.2 32.4
06:10 1011 29.85 840 24.81 17.9 64.2 32 0.9 33.7
06:15 1011 29.85 840 24.81 17.4 63.3 36 2.2 36
06:20 1011 29.85 840 24.81 17.2 62.9 35 1.6 34.8
06:25 1011 29.85 840 24.81 18.4 65.1 27 -0.6 30.9
06:30 1011 29.85 840 24.81 21.4 70.5 25 0.6 33.1
06:35 1011 29.85 840 24.81 22.2 71.9 21 -0.7 30.7
06:40 1011 29.85 840 24.81 22.5 72.6 22 -0.1 31.8
06:45 1011 29.85 840 24.81 22.7 72.9 21 -0.5 31
06:50 1011 29.85 840 24.81 22.7 72.9 23 0.6 33.1
06:55 1011 29.85 840 24.81 22.3 72.2 24 0.8 33.4
07:00 1011 29.85 840 24.81 22.2 72 24 1 33.7
07:05 1011 29.85 840 24.81 22.1 71.9 23 0.3 32.5
07:10 1011 29.85 840 24.81 22.3 72.2 23 0.6 33.1
07:15 1011 29.85 840 24.81 22.6 72.7 26 2.3 36.2
07:20 1011 29.85 840 24.81 22.8 73.1 25 1.8 35.2
07:25 1011 29.85 840 24.81 23.1 73.5 25 2 35.5
07:30 1011 29.85 840 24.81 23.4 74.1 24 1.9 35.4
07:35 1011 29.85 840 24.81 23.7 74.7 23 1.6 34.8
07:40 1011 29.85 840 24.81 23.8 74.9 22 1 33.8
07:45 1011 29.85 840 24.81 24.2 75.5 21 0.6 33
07:50 1011 29.85 840 24.81 23.8 74.9 24 2 35.6
07:55 1011 29.85 840 24.81 23.6 74.6 21 0.2 32.3
08:00 1011 29.85 840 24.81 23.5 74.3 21 0.5 32.8
08:05 1011 29.85 840 24.81 23.3 74 21 0.1 32.1
08:10 1011 29.85 840 24.81 23.2 73.8 21 0 32
08:15 1011 29.85 840 24.81 23.2 73.8 21 -0 32
08:20 1011 29.85 840 24.81 23.2 73.8 22 0.7 33.2
08:25 1011 29.85 840 24.81 23.5 74.4 23 1.5 34.8
08:30 1011 29.85 840 24.81 24.3 75.7 24 2.5 36.5
08:35 1011 29.85 840 24.81 24.5 76.2 24 2.8 37.1
08:40 1011 29.85 840 24.81 24.1 75.4 24 2.4 36.3
08:45 1011 29.85 840 24.81 23.8 74.9 22 0.9 33.6
08:50 1011 29.85 840 24.81 24 75.3 22 1.1 33.9
08:55 1011 29.85 840 24.81 24 75.3 21 0.9 33.6
09:00 1010 29.83 840 24.81 24 75.3 22 1.2 34.1
09:05 1010 29.83 840 24.81 24.1 75.4 21 0.4 32.7
09:10 1010 29.83 839 24.78 24.1 75.4 21 0.8 33.4
09:15 1010 29.83 839 24.78 24.1 75.4 21 0.6 33.1
09:20 1010 29.83 839 24.78 24.2 75.5 22 1.5 34.8
09:25 1010 29.83 839 24.78 24.4 76 23 2.2 35.9
09:30 1010 29.83 839 24.78 25.1 77.3 23 2.8 37.1
09:35 1010 29.83 839 24.78 25.6 78 22 2.7 36.9
09:40 1010 29.83 839 24.78 25.8 78.5 21 2.2 36
09:45 1010 29.83 839 24.78 25.4 77.7 17 -0.9 30.3
09:50 1010 29.83 839 24.78 25.4 77.6 18 -0.2 31.6
09:55 1010 29.83 839 24.78 25.2 77.3 19 0.5 32.9
10:00 1010 29.83 839 24.78 25.6 78 19 0.7 33.3
10:05 1010 29.83 839 24.78 26.2 79.1 16 -1.1 30
10:10 1010 29.83 839 24.78 26.8 80.2 19 1.4 34.5
10:15 1010 29.83 839 24.78 27.3 81.1 21 3.6 38.5
10:20 1010 29.83 839 24.78 27.3 81.2 22 4 39.3
10:25 1010 29.83 839 24.78 27.8 82 18 1.8 35.2
10:30 1010 29.83 839 24.78 27.8 82 15 -0.9 30.5
10:35 1009 29.8 839 24.78 28 82.3 14 -1.3 29.6
10:40 1009 29.8 839 24.78 27.7 81.9 14 -2.1 28.3
10:45 1009 29.8 838 24.75 27.3 81.1 14 -2 28.4
10:50 1009 29.8 838 24.75 27.2 80.9 14 -2.1 28.2
10:55 1009 29.8 838 24.75 27.4 81.3 14 -2.5 27.6
11:00 1009 29.8 838 24.75 26.8 80.2 15 -2 28.4
11:05 1009 29.8 838 24.75 27 80.6 15 -1.6 29.1
11:10 1009 29.8 838 24.75 27.1 80.8 15 -1.7 28.9
11:15 1009 29.8 838 24.75 27.1 80.8 15 -1.4 29.4
11:20 1009 29.8 838 24.75 27.1 80.8 14 -2.1 28.1
11:25 1009 29.8 838 24.75 27 80.5 14 -2.6 27.3
11:30 1009 29.8 838 24.75 27 80.5 14 -2.2 28
11:35 1009 29.8 838 24.75 27.2 80.9 13 -2.9 26.7
11:40 1009 29.8 838 24.75 26.9 80.3 14 -2.3 27.9
11:45 1009 29.8 838 24.75 27 80.6 13 -3 26.7
11:50 1009 29.8 838 24.75 27 80.5 15 -1.9 28.5
11:55 1009 29.8 838 24.75 27.1 80.9 13 -3.2 26.2
12:00 1008 29.77 838 24.75 26.9 80.5 13 -3.2 26.3
12:05 1008 29.77 838 24.75 26.9 80.5 13 -3.2 26.3
12:10 1008 29.77 838 24.75 27 80.6 13 -3.4 26
12:15 1008 29.77 838 24.75 26.8 80.3 13 -3.2 26.3
12:20 1008 29.77 838 24.75 26.9 80.3 14 -2.7 27.2
12:25 1008 29.77 837 24.72 27 80.6 14 -2.7 27.2
12:30 1008 29.77 837 24.72 27.2 81 14 -2.5 27.6
12:35 1008 29.77 837 24.72 27.2 80.9 14 -2.6 27.3
12:40 1008 29.77 837 24.72 27.1 80.9 13 -2.9 26.8
12:45 1008 29.77 837 24.72 27.4 81.2 14 -1.7 28.9
12:50 1008 29.77 837 24.72 27.4 81.3 14 -2.3 27.9
15:35 1007 29.74 837 24.72 26.6 79.8 14 -2.4 27.7
15:40 1007 29.74 837 24.72 26.4 79.6 14 -2.6 27.4
15:45 1007 29.74 837 24.72 26.1 79 18 0.2 32.3
15:50 1007 29.74 837 24.72 25.5 77.8 16 -1.7 28.9
15:55 1008 29.77 837 24.72 25.4 77.7 19 0.1 32.2
16:00 1007 29.74 837 24.72 25.3 77.5 16 -1.8 28.7
16:05 1007 29.74 837 24.72 25.2 77.3 18 -0.3 31.5
16:10 1007 29.74 836 24.69 25.2 77.4 17 -1.1 30.1
16:15 1007 29.74 836 24.69 25.8 78.5 17 -0.7 30.8
16:20 1007 29.74 836 24.69 26 78.9 15 -2.3 27.8
16:25 1007 29.74 836 24.69 25.6 78.2 19 0.2 32.4
16:30 1007 29.74 836 24.69 26 78.8 17 -0.6 30.9
16:35 1007 29.74 836 24.69 26.4 79.4 16 -1.1 30
16:40 1007 29.74 836 24.69 26.4 79.6 18 0.2 32.4